Probability
0 0 0 0 0 0 0 0 0 0 0 0 0 0 0 0 0 0 0 0 0 0 0 0 0 0 0 0 0 0 0 0 0 0 0 0 0 0 0 0 0 0 0
0 0 0 0 0 0 0 0 0 0 0 0 0 0 0 0 0 0 0 0 0 0 0 0 0 0 0 0 0 0 0 0 0 0 0 0 0 0 0 0 0 0 0
0 0 0 0 0 0 0 0 0 0 0 0 0 0 0 0 0 0 0 0 0 0 0 0 0 0 0 0 0 0 0 0 0 0 0 0 0 0 0 0 0 0 0
0 0 0 0 0 0 0 0 0 0 0 0 0 0 0 0 0 0 0 0 0 0 0 0 0 0 0 0 0 0 0 0 0 0 0 0 0 0 0 0 0 0 0
0 0 0 0 0 0 0 0 0 0 0 0 0 0 0 0 0 0 0 0 0 0 0 0 0 0 0 0 0 0 0 0 0 0 0 0 0 0 0 0 0 0 0
0 0 1 1 1 1 0 0 0 0 0 0 0 0 0 0 0 0 0 0 0 0 0 0 0 0 0 0 0 0 0 0 0 0 0 0 0 0 0 0 0 0 0
0 0 1 2 2 1 0 0 0 0 0 0 0 0 0 0 0 0 0 0 0 0 0 0 0 0 0 0 0 0 0 0 0 0 0 0 0 0 0 0 0 0 0
0 0 0 1 2 1 0 0 0 0 0 0 0 0 0 0 0 0 0 0 0 0 0 0 0 0 0 0 0 0 0 0 0 0 0 0 0 0 0 0 0 0 0
0 0 0 0 0 0 0 0 0 0 0 0 0 0 0 0 0 0 0 0 0 0 0 0 0 0 0 0 0 0 0 0 0 0 0 0 0 0 0 0 0 0 0
1 0 0 0 0 0 0 0 0 0 0 0 0 0 0 0 0 0 0 0 0 0 0 0 0 0 0 0 0 0 0 0 0 0 0 0 0 0 0 0 0 0 0
2 1 0 0 0 0 0 0 0 0 0 0 0 0 0 0 0 0 0 0 0 0 0 0 0 0 0 0 0 0 0 0 0 0 0 0 0 0 0 0 0 0 0
3 2 1 0 0 0 0 0 0 0 0 0 0 0 0 0 0 0 0 0 0 0 0 0 0 0 0 0 0 0 0 0 0 0 0 0 0 0 0 0 0 0 0
3 2 1 0 0 0 0 0 0 0 0 0 0 0 0 0 0 0 0 0 0 0 0 0 0 0 0 0 0 0 0 0 0 0 0 0 0 0 0 0 0 0 0
1 1 1 0 0 0 0 0 0 0 0 0 0 0 0 0 0 0 0 0 0 0 0 0 0 0 0 0 0 0 0 0 0 0 0 0 0 0 0 0 0 0 0
0 0 0 0 0 0 0 0 0 0 0 0 0 0 0 0 0 0 0 0 0 0 0 0 0 0 0 0 0 0 0 0 0 0 0 0 0 0 0 0 0 0 0
0 0 0 0 0 0 0 0 0 0 0 0 0 0 0 0 0 0 0 0 0 0 0 0 0 0 0 0 0 0 0 0 0 0 0 0 0 0 0 0 0 0 0
1 1 1 1 1 0 0 0 0 0 0 0 0 0 0 0 0 0 0 0 0 0 0 0 0 0 0 0 0 0 0 0 0 0 0 0 0 0 0 0 0 0 0
2 2 2 2 2 1 0 0 0 0 0 0 0 0 0 0 0 0 0 0 0 0 0 0 0 0 0 0 0 0 0 0 0 0 0 0 0 0 0 0 0 0 0
4 3 3 3 3 2 1 1 1 1 1 0 0 0 0 0 0 0 0 0 0 0 0 0 0 0 0 0 0 0 0 0 0 0 0 0 0 0 0 0 0 0 1
5 4 3 4 4 4 4 2 1 0 0 0 0 0 0 0 0 0 0 0 0 0 0 0 0 0 0 0 0 0 0 0 0 0 0 0 0 0 0 0 0 1 3
5 4 5 6 6 6 5 2 0 0 0 0 0 0 0 0 0 0 0 0 0 0 0 0 0 0 0 0 0 0 0 0 0 0 0 0 0 0 0 0 0 1 2
5 5 6 7 7 6 5 3 1 0 0 0 0 0 0 0 0 0 0 0 0 0 0 0 0 0 0 0 0 0 0 0 0 0 0 0 0 0 0 0 0 0 1
5 6 7 7 6 6 7 5 3 1 1 0 0 0 0 0 0 0 0 0 0 0 0 0 0 0 0 0 0 0 0 0 0 0 0 0 0 0 0 0 0 0 0
6 7 8 6 5 6 7 6 5 4 2 0 0 1 1 0 0 0 0 0 0 0 0 0 0 0 0 0 0 0 0 0 0 0 0 0 0 0 0 0 0 0 0
7 7 7 5 4 4 6 6 6 5 3 1 1 2 2 1 0 0 0 0 0 0 0 0 0 0 0 0 0 0 0 0 0 0 0 0 0 0 0 0 0 0 0
8 7 6 4 3 4 6 6 6 5 4 2 1 2 2 1 0 0 0 0 0 0 0 0 0 0 0 0 0 0 0 0 0 0 0 0 0 0 0 0 0 0 0
Wind_Speed
2 3 9 10 12 13 13 14 14 14 15 15 15 15 15 15 15 15 15 15 15 15 16 16 16 16 16 15 15 15 15 14 14 15 15 15 15 15 15 16 15 12 16
4 4 10 10 11 12 13 13 14 14 14 14 14 14 15 14 15 14 15 15 15 15 15 16 16 15 15 15 14 14 14 14 14 14 14 14 14 14 15 15 14 11 15
6 4 8 11 11 12 12 13 13 13 13 13 13 14 14 14 14 14 14 14 14 14 15 15 15 15 14 14 13 13 13 13 14 14 13 8 10 14 14 14 15 15 14
6 4 6 11 11 11 12 12 12 12 13 13 13 13 13 13 13 13 13 13 13 14 14 14 14 14 14 13 13 13 13 13 13 13 7 7 8 13 14 15 15 14 14
6 4 6 11 11 11 11 11 11 12 12 12 12 12 12 12 12 12 13 13 13 13 13 14 13 13 12 12 12 12 12 13 13 10 7 7 6 12 14 14 14 14 14
5 4 6 11 10 10 10 10 11 11 11 11 11 11 11 11 11 11 12 12 12 12 13 13 13 12 11 11 11 12 12 13 11 8 7 6 6 12 14 14 14 13 13
5 3 5 10 10 10 10 10 10 10 10 10 10 10 10 10 10 11 11 11 11 11 11 12 12 11 11 10 11 11 11 12 8 7 6 6 7 11 13 13 13 13 12
5 4 4 9 10 9 9 9 9 9 9 9 9 9 9 10 9 10 9 10 10 10 10 10 10 10 9 10 10 11 11 11 9 7 6 5 8 11 12 13 12 12 12
4 4 3 3 5 8 8 8 8 8 8 8 8 8 8 8 8 8 8 8 8 9 9 9 9 8 8 8 9 10 10 11 7 5 6 4 8 10 12 12 11 11 11
4 3 3 3 3 3 3 7 7 7 7 7 7 7 7 6 6 7 6 6 7 7 7 8 7 7 7 7 8 9 10 9 5 5 4 5 9 10 10 11 10 10 10
4 2 2 2 2 2 2 4 5 6 6 5 4 6 5 3 3 3 4 5 5 5 6 6 6 6 6 6 7 8 7 3 5 4 3 7 9 9 10 10 10 9 9
6 4 2 2 2 1 1 2 2 2 2 3 2 3 3 2 1 2 2 3 4 4 4 5 5 5 4 3 4 6 3 4 4 3 4 8 8 9 9 9 9 9 9
5 5 4 3 2 2 1 2 1 1 1 2 2 2 2 2 2 2 1 2 2 3 2 3 3 2 2 2 2 2 3 3 2 2 4 8 7 8 9 9 9 9 9
5 5 4 4 3 2 1 1 1 1 1 1 1 2 2 1 1 1 1 1 1 1 1 1 1 1 1 1 3 3 3 3 2 2 3 8 8 9 9 9 9 9 9
6 6 5 5 4 3 2 2 2 2 1 1 1 1 2 2 1 0 0 0 0 0 0 0 0 1 1 1 2 3 4 4 4 3 2 8 9 9 9 9 9 9 9
7 6 5 5 5 4 3 2 2 2 2 1 1 2 3 2 2 1 1 1 1 1 0 0 0 0 0 1 1 3 4 4 4 4 3 5 8 9 9 10 10 10 10
7 6 6 6 5 5 4 4 2 2 2 2 2 3 3 3 3 3 2 2 1 1 1 0 0 1 0 0 1 2 2 3 4 4 4 3 4 8 10 10 10 10 11
6 6 6 6 6 5 4 3 2 2 3 2 2 2 3 4 4 3 3 2 2 1 1 1 1 0 0 1 1 1 1 2 4 5 4 4 4 4 7 11 11 11 11
7 7 7 5 6 5 4 3 2 2 2 2 2 2 3 3 4 3 3 2 2 1 1 2 1 1 1 1 1 1 2 3 4 5 5 6 5 5 5 7 10 11 12
6 7 7 5 5 4 3 2 1 1 1 1 2 2 3 2 3 4 3 3 2 2 2 1 1 1 1 2 1 1 2 2 3 4 5 5 5 6 6 6 5 7 11
6 6 6 5 4 4 2 2 2 2 2 2 2 3 3 3 3 3 3 3 3 3 3 3 2 2 1 1 1 1 1 1 2 3 4 4 5 6 6 7 6 5 5
6 6 5 5 5 4 3 2 2 2 1 2 1 2 3 3 3 4 4 3 4 3 3 3 2 1 1 2 2 1 1 2 2 2 3 4 5 4 6 7 6 6 6
6 6 6 5 5 4 4 2 2 1 1 0 0 1 1 2 3 3 3 3 3 3 3 4 4 4 3 2 2 3 2 2 2 2 2 3 3 4 4 5 6 7 7
6 5 4 4 4 4 4 3 3 2 2 2 1 1 1 1 2 2 3 3 3 3 3 4 4 3 3 2 2 2 2 2 2 2 2 2 3 3 4 4 5 6 6
6 5 4 4 3 3 4 4 3 2 2 1 0 0 1 0 1 2 2 2 3 3 4 4 3 3 3 3 3 2 2 2 2 2 3 2 1 2 3 4 4 4 4
5 4 4 4 3 3 4 4 4 3 2 1 0 0 1 0 0 0 1 1 2 2 3 3 3 4 3 3 3 3 3 3 3 3 4 3 2 2 2 2 3 3 3
Wind_Direction
135 137 119 109 104 102 101 99 99 99 99 100 101 101 100 98 97 96 95 95 96 99 100 101 101 101 101 101 101 103 103 104 106 106 107 108 110 110 110 110 109 108 110
140 135 123 114 108 105 103 103 102 101 101 102 102 101 100 99 97 96 96 96 97 99 100 101 101 101 102 102 102 101 103 103 104 106 107 109 111 111 111 111 111 114 114
125 122 122 118 111 107 104 103 104 104 103 102 103 103 102 100 99 98 97 96 98 99 100 102 102 101 102 102 101 101 101 103 105 105 103 101 110 114 114 115 114 114 115
122 116 125 122 115 111 108 106 106 106 105 104 104 104 103 101 100 100 100 98 99 99 100 102 104 103 103 103 104 103 102 104 105 102 93 98 108 116 115 114 114 115 116
115 116 134 124 119 115 112 109 108 108 108 107 107 106 105 104 102 101 100 100 101 101 101 102 104 104 102 104 107 108 106 106 105 98 91 90 97 116 116 115 115 116 117
115 118 134 126 123 119 116 113 111 109 110 109 108 107 107 107 105 103 101 101 102 102 102 102 103 104 104 106 110 111 109 107 98 95 93 96 105 118 118 118 117 116 117
121 119 132 131 129 125 121 118 115 111 111 111 111 110 109 107 104 103 103 103 103 104 104 104 104 104 105 108 110 112 111 112 102 100 98 101 112 121 120 120 120 119 119
121 114 124 135 133 130 127 124 120 117 115 114 113 112 111 109 106 105 105 106 105 106 106 106 107 105 105 107 111 117 118 118 114 111 107 110 123 123 123 124 125 124 123
108 104 99 118 130 136 134 129 125 122 121 119 118 116 113 111 108 106 106 108 108 109 109 109 107 104 105 109 114 120 123 121 116 120 122 119 127 127 127 128 128 127 127
101 98 96 89 89 98 120 134 131 128 126 126 128 127 121 112 107 105 102 108 110 109 110 111 109 103 102 112 119 125 125 119 118 119 121 137 139 137 135 134 133 132 133
145 113 107 103 95 94 111 141 131 131 128 122 118 118 97 62 61 83 108 112 111 108 108 111 108 100 94 102 119 122 120 115 125 127 134 150 152 150 145 143 141 141 140
177 174 158 148 136 124 138 95 70 74 79 72 67 79 75 68 52 78 89 106 105 102 103 103 99 88 79 73 105 109 111 128 133 142 157 160 162 159 154 152 150 148 147
180 183 176 171 164 158 93 104 81 67 70 72 84 96 87 65 44 44 33 45 49 63 55 65 71 69 78 94 104 117 132 137 147 155 164 167 171 169 165 163 161 160 159
178 190 182 176 176 181 158 134 132 118 114 124 135 136 115 93 61 43 27 38 44 48 53 53 61 68 84 132 142 146 151 156 162 165 179 179 183 181 178 175 174 173 171
188 194 190 183 187 185 176 183 165 171 178 190 185 178 154 160 178 171 304 13 15 66 84 53 41 56 72 119 152 161 169 174 175 181 192 194 193 192 190 189 187 185 183
194 196 194 193 191 182 184 192 183 181 184 192 209 205 182 176 184 186 208 242 264 260 245 235 348 55 50 121 166 176 183 185 188 190 198 207 207 202 201 200 198 197 196
191 190 191 194 186 187 195 198 193 189 184 194 211 212 199 192 194 191 201 226 238 229 204 114 25 43 80 141 184 193 191 198 197 198 199 207 216 215 213 210 208 207 207
182 184 193 197 183 190 197 197 190 187 189 201 207 211 214 209 199 187 198 224 223 201 179 167 160 105 256 198 208 214 196 204 208 207 206 210 216 221 223 221 219 218 218
182 180 187 190 180 186 187 181 186 187 193 193 199 214 220 210 198 192 201 212 200 194 201 207 172 173 203 218 220 218 220 215 213 214 214 217 219 223 226 229 229 227 227
175 176 182 181 177 166 154 147 158 193 209 190 202 214 220 215 203 192 199 201 187 189 209 203 194 181 197 209 231 237 246 232 217 219 222 220 222 227 228 229 231 234 234
166 173 180 175 175 160 153 167 178 205 211 209 211 211 218 221 211 200 203 192 187 195 209 202 192 194 211 171 132 330 310 256 231 229 226 224 227 228 226 224 224 226 235
174 178 177 182 181 181 178 172 174 175 202 212 220 221 217 216 210 211 207 202 195 191 203 202 186 185 218 177 157 135 319 322 286 237 221 225 234 229 227 225 223 224 229
178 182 183 184 184 186 173 140 110 86 52 59 255 243 231 221 214 211 209 206 197 191 204 209 198 194 207 204 179 163 176 238 291 292 239 229 227 224 229 226 226 227 227
185 178 177 174 176 176 165 160 163 175 199 214 210 220 256 232 219 215 214 214 207 202 210 218 205 201 193 209 205 201 199 181 197 285 292 251 229 233 234 232 232 231 227
170 165 171 167 171 169 169 172 169 188 208 205 145 232 264 270 240 232 221 216 213 211 216 221 206 204 203 206 203 190 198 210 208 212 261 276 260 246 238 236 238 237 230
152 155 160 165 175 173 173 172 177 191 189 170 201 245 271 281 286 278 217 213 216 215 219 223 213 206 211 217 216 205 193 195 203 204 228 246 257 262 252 242 235 236 232